Location: Unspecified
(43.1763°N, 79.4719°W)
Time: 18:26:36
(UTC-04:00)

Okean 3 - Visible Passes

Search period start: 25 June 2017 00:00
Search period end: 05 July 2017 00:00
Orbit: 578 x 602 km, 82.5° (Epoch: 25 June)

Date Brightness Start Highest point End Pass type
(mag) Time Alt. Az. Time Alt. Az. Time Alt. Az.
25 Jun 5.7 02:13:19 10° NNE 02:16:26 20° ENE 02:18:59 12° ESE visible
25 Jun 4.2 03:49:57 10° NNW 03:53:48 35° W 03:55:30 25° SW visible
26 Jun 5.1 02:21:08 10° NNE 02:24:49 28° ENE 02:26:50 19° ESE visible
26 Jun 4.8 03:58:34 10° NW 04:01:56 24° W 04:03:21 20° WSW visible
27 Jun 4.4 02:29:08 10° N 02:33:10 41° ENE 02:34:42 29° SE visible
27 Jun 5.2 04:07:25 10° NW 04:10:02 16° W 04:11:14 15° WSW visible
28 Jun 3.7 02:37:14 10° N 02:41:28 63° E 02:42:37 43° SE visible
28 Jun 5.6 04:17:06 10° WNW 04:18:06 11° W 04:19:05 10° W visible
29 Jun 3.3 02:45:28 10° N 02:49:43 85° W 02:50:33 57° S visible
30 Jun 6.0 01:18:16 10° NE 01:20:18 13° ENE 01:21:58 11° E visible
30 Jun 3.6 02:53:48 10° NNW 02:57:56 55° W 02:58:29 50° SW visible
01 Jul 5.5 01:25:42 10° NNE 01:28:43 19° ENE 01:29:56 17° E visible
01 Jul 4.2 03:02:14 10° NNW 03:06:07 36° W 03:06:28 35° WSW visible
02 Jul 5.0 01:33:29 10° NNE 01:37:07 27° ENE 01:37:55 25° E visible
02 Jul 4.8 03:10:50 10° NW 03:14:15 24° W 03:14:27 24° W visible
03 Jul 4.3 01:41:27 10° N 01:45:28 40° ENE 01:45:55 38° E visible
03 Jul 5.3 03:19:41 10° NW 03:22:21 17° W 03:22:27 17° W visible
04 Jul 3.6 01:49:34 10° N 01:53:45 60° E 01:53:56 60° E visible
04 Jul 5.7 03:29:12 10° WNW 03:30:25 11° W 03:30:28 11° W visible
